FW1542 Weather Reports


time (UTC)temp
C
wind
direction
speed
KPH
gust
KPH
rain 1hr
cm
rain 24hr
cm
rain mn
cm
humidity
%
barometer
mb
20260902230058 37 122 3.2 8.0 0.00 0.00 0.00 41 1012.4
20260902230053 37 150 0.0 9.7 0.00 0.00 0.00 41 1010.8
20260902224557 37 167 4.8 12.9 0.00 0.00 0.00 39 1012.5
20260902224552 37 192 1.6 12.9 0.00 0.00 0.00 39 1010.9
20260902223116 37 106 0.0 9.7 0.00 0.00 0.00 38 1010.9
20260902223103 37 177 3.2 9.7 0.00 0.00 0.00 38 1012.5
20260902221616 38 183 1.6 14.5 0.00 0.00 0.00 39 1011.0
20260902220059 38 0 0.0 12.9 0.00 0.00 0.00 38 1011.2
20260902220056 38 206 0.0 6.4 0.00 0.00 0.00 38 1012.8
20260902214556 37 123 3.2 14.5 0.00 0.00 0.00 39 1011.2
20260902214551 37 58 1.6 14.5 0.00 0.00 0.00 39 1012.9
20260902213101 37 103 3.2 14.5 0.00 0.00 0.00 39 1011.4
20260902213053 37 104 6.4 14.5 0.00 0.00 0.00 40 1012.9
20260902211611 37 246 1.6 12.9 0.00 0.00 0.00 38 1011.4
20260902211605 37 246 3.2 12.9 0.00 0.00 0.00 39 1013.1
20260902210053 37 120 6.4 14.5 0.00 0.00 0.00 41 1013.2
20260902204554 37 129 1.6 14.5 0.00 0.00 0.00 42 1011.9
20260902204547 37 103 4.8 12.9 0.00 0.00 0.00 42 1013.5
20260902203053 37 0 4.8 11.3 0.00 0.00 0.00 41 1012.1
20260902203043 37 109 3.2 11.3 0.00 0.00 0.00 41 1013.7
20260902201629 36 96 0.0 9.7 0.00 0.00 0.00 42 1012.4
20260902201548 37 101 3.2 8.0 0.00 0.00 0.00 43 1013.9
20260902200105 36 175 6.4 19.3 0.00 0.00 0.00 44 1012.8
20260902200037 36 169 4.8 17.7 0.00 0.00 0.00 45 1014.3
20260902194556 36 100 4.8 16.1 0.00 0.00 0.00 45 1013.0
20260902194539 36 91 3.2 16.1 0.00 0.00 0.00 46 1014.5
20260902193050 36 250 3.2 16.1 0.00 0.00 0.00 47 1013.1
20260902193033 36 250 3.2 16.1 0.00 0.00 0.00 47 1014.7
20260902191556 36 0 3.2 16.1 0.00 0.00 0.00 50 1013.4
20260902191529 36 129 1.6 14.5 0.00 0.00 0.00 51 1014.9
20260902190056 36 234 4.8 11.3 0.00 0.00 0.00 52 1013.6
20260902190026 36 255 6.4 12.9 0.00 0.00 0.00 52 1015.2
20260902184554 36 188 8.0 14.5 0.00 0.00 0.00 51 1013.9
20260902184523 36 159 6.4 12.9 0.00 0.00 0.00 52 1015.5
20260902183055 35 130 8.0 16.1 0.00 0.00 0.00 53 1014.2
20260902183019 35 130 6.4 16.1 0.00 0.00 0.00 53 1015.8
20260902181613 35 0 1.6 11.3 0.00 0.00 0.00 56 1014.4
20260902181518 35 201 1.6 11.3 0.00 0.00 0.00 56 1016.0
20260902180059 35 197 3.2 12.9 0.00 0.00 0.00 54 1014.9
20260902180018 35 215 1.6 12.9 0.00 0.00 0.00 55 1016.4
20260902174552 35 144 1.6 11.3 0.00 0.00 0.00 56 1015.0
20260902174512 35 132 1.6 11.3 0.00 0.00 0.00 57 1016.6
20260902173056 34 104 3.2 16.1 0.00 0.00 0.00 57 1015.2
20260902173009 34 129 4.8 14.5 0.00 0.00 0.00 57 1016.9
20260902171609 33 0 3.2 12.9 0.00 0.00 0.00 61 1015.2
20260902171506 33 217 3.2 12.9 0.00 0.00 0.00 60 1016.9
20260902170057 33 158 3.2 12.9 0.00 0.00 0.00 60 1015.6
20260902170003 33 86 3.2 12.9 0.00 0.00 0.00 61 1017.1
20260902164610 33 190 4.8 12.9 0.00 0.00 0.00 64 1017.2
20260902164557 33 101 3.2 12.9 0.00 0.00 0.00 64 1015.8
20260902163055 32 277 0.0 9.7 0.00 0.00 0.00 67 1017.2
20260902161602 32 0 0.0 6.4 0.00 0.00 0.00 68 1015.7
20260902161600 32 51 0.0 6.4 0.00 0.00 0.00 68 1017.1
20260902160049 31 235 3.2 9.7 0.00 0.00 0.00 70 1017.2
20260902154604 31 203 4.8 11.3 0.00 0.00 0.00 72 1015.6
20260902153056 30 201 3.2 16.1 0.00 0.00 0.00 74 1015.7
20260902153046 30 201 3.2 14.5 0.00 0.00 0.00 75 1017.4
20260902151603 30 183 3.2 11.3 0.00 0.00 0.00 76 1015.7
20260902151541 30 211 3.2 9.7 0.00 0.00 0.00 76 1017.5
20260902150052 30 115 0.0 16.1 0.00 0.00 0.00 77 1015.7
20260902150039 30 115 1.6 12.9 0.00 0.00 0.00 77 1017.3
20260902144555 28 173 4.8 9.7 0.00 0.00 0.00 80 1015.8
20260902144541 28 214 4.8 9.7 0.00 0.00 0.00 80 1017.5
20260902143053 28 163 3.2 11.3 0.00 0.00 0.00 81 1016.0
20260902143035 28 163 1.6 8.0 0.00 0.00 0.00 82 1017.5
20260902141555 28 142 4.8 9.7 0.00 0.00 0.00 82 1015.9
20260902141534 28 142 4.8 8.0 0.00 0.00 0.00 83 1017.5
20260902140055 27 182 3.2 8.0 0.00 0.00 0.00 85 1016.0
20260902140037 27 182 3.2 8.0 0.00 0.00 0.00 85 1017.4
20260902134611 26 192 1.6 6.4 0.00 0.00 0.00 88 1015.8
20260902134530 26 192 1.6 6.4 0.00 0.00 0.00 89 1017.3
20260902133059 26 188 0.0 4.8 0.00 0.00 0.00 91 1015.8
20260902133029 26 188 0.0 4.8 0.00 0.00 0.00 91 1017.1
20260902131552 25 0 0.0 3.2 0.00 0.00 0.00 92 1015.6
20260902131529 25 173 0.0 3.2 0.00 0.00 0.00 92 1017.0
20260902130051 25 0 0.0 3.2 0.00 0.00 0.00 92 1015.5
20260902130025 25 171 0.0 3.2 0.00 0.00 0.00 92 1016.9
20260902124605 25 0 0.0 6.4 0.00 0.00 0.00 91 1015.5
20260902124531 25 192 0.0 4.8 0.00 0.00 0.00 92 1016.7
20260902123053 25 0 0.0 4.8 0.00 0.00 0.00 90 1015.3
20260902123023 25 166 0.0 6.4 0.00 0.00 0.00 91 1016.7
20260902121551 25 0 0.0 6.4 0.00 0.00 0.00 90 1015.1
20260902121523 25 167 0.0 4.8 0.00 0.00 0.00 91 1016.5
20260902120048 25 0 0.0 6.4 0.00 0.00 0.00 90 1015.1
20260902120023 25 168 0.0 6.4 0.00 0.00 0.00 91 1016.5
20260902114557 25 173 0.0 8.0 0.00 0.00 0.00 90 1015.0
20260902114524 25 173 0.0 8.0 0.00 0.00 0.00 91 1016.4
20260902113056 25 0 0.0 6.4 0.00 0.00 0.00 90 1015.0
20260902113021 25 153 0.0 6.4 0.00 0.00 0.00 91 1016.4
20260902111554 25 0 0.0 6.4 0.00 0.00 0.00 89 1014.9
20260902111522 25 204 0.0 6.4 0.00 0.00 0.00 90 1016.4
20260902110049 25 0 0.0 3.2 0.00 0.00 0.00 88 1015.0
20260902110020 25 203 0.0 3.2 0.00 0.00 0.00 89 1016.3
20260902104554 25 0 0.0 3.2 0.00 0.00 0.00 87 1014.9
20260902104519 25 169 0.0 3.2 0.00 0.00 0.00 87 1016.2
20260902103057 25 140 1.6 4.8 0.00 0.00 0.00 86 1014.8
20260902103033 25 140 1.6 4.8 0.00 0.00 0.00 86 1016.1
20260902101554 25 137 3.2 6.4 0.00 0.00 0.00 86 1014.9
20260902101525 25 137 3.2 6.4 0.00 0.00 0.00 86 1016.3
20260902100055 25 0 0.0 4.8 0.00 0.00 0.00 85 1014.9
20260902100013 25 148 0.0 4.8 0.00 0.00 0.00 85 1016.4
20260902094554 25 149 1.6 3.2 0.00 0.00 0.00 84 1014.9
20260902094511 25 150 1.6 4.8 0.00 0.00 0.00 85 1016.3
20260902093114 25 169 0.0 6.4 0.00 0.00 0.00 83 1015.1
20260902093009 25 169 0.0 4.8 0.00 0.00 0.00 84 1016.4
20260902091552 25 0 0.0 4.8 0.00 0.00 0.00 83 1015.0
20260902091508 25 135 0.0 3.2 0.00 0.00 0.00 83 1016.3
20260902090008 25 112 1.6 6.4 0.00 0.00 0.00 83 1016.5
20260902084557 25 113 1.6 4.8 0.00 0.00 0.00 81 1015.1
20260902084506 25 113 1.6 3.2 0.00 0.00 0.00 81 1016.5
20260902083056 26 111 1.6 4.8 0.00 0.00 0.00 80 1014.9
20260902083003 26 111 1.6 4.8 0.00 0.00 0.00 81 1016.4
20260902081613 26 108 0.0 3.2 0.00 0.00 0.00 79 1015.0
20260902081502 26 108 0.0 3.2 0.00 0.00 0.00 79 1016.5
20260902080100 26 120 0.0 3.2 0.00 0.00 0.00 78 1016.5
20260902080056 26 0 0.0 4.8 0.00 0.00 0.00 77 1015.1
20260902074559 26 117 0.0 4.8 0.00 0.00 0.00 76 1016.7
20260902074556 26 117 0.0 4.8 0.00 0.00 0.00 76 1015.2
20260902073057 27 117 1.6 4.8 0.00 0.00 0.00 75 1016.5
20260902073052 27 117 1.6 4.8 0.00 0.00 0.00 75 1015.2
20260902071602 27 128 1.6 6.4 0.00 0.00 0.00 74 1016.6
20260902071556 27 128 3.2 9.7 0.00 0.00 0.00 74 1015.2
20260902070051 27 145 3.2 6.4 0.00 0.00 0.00 72 1016.7
20260902064616 27 0 6.4 14.5 0.00 0.00 0.00 71 1015.1
20260902064601 27 137 4.8 14.5 0.00 0.00 0.00 72 1016.5
20260902063058 28 146 3.2 8.0 0.00 0.00 0.00 70 1015.1
20260902063051 28 144 1.6 8.0 0.00 0.00 0.00 70 1016.5
20260902061555 28 143 4.8 9.7 0.00 0.00 0.00 68 1014.9
20260902061550 28 130 4.8 8.0 0.00 0.00 0.00 69 1016.4
20260902060109 28 142 3.2 12.9 0.00 0.00 0.00 66 1014.8
20260902060045 28 148 3.2 8.0 0.00 0.00 0.00 67 1016.3
20260902054554 28 115 6.4 17.7 0.00 0.00 0.00 65 1014.7
20260902054542 28 115 6.4 14.5 0.00 0.00 0.00 66 1016.4
20260902053055 28 153 3.2 12.9 0.00 0.00 0.00 65 1014.8
20260902053039 28 153 3.2 12.9 0.00 0.00 0.00 66 1016.4
20260902051547 29 150 6.4 14.5 0.00 0.00 0.00 66 1014.7
20260902051539 29 109 8.0 16.1 0.00 0.00 0.00 66 1016.3
20260902050110 29 140 3.2 11.3 0.00 0.00 0.00 66 1014.6
20260902050034 29 140 3.2 11.3 0.00 0.00 0.00 66 1016.2
20260902044608 30 109 6.4 16.1 0.00 0.00 0.00 65 1014.3
20260902044541 30 103 6.4 16.1 0.00 0.00 0.00 65 1016.1
20260902043056 30 140 6.4 16.1 0.00 0.00 0.00 64 1014.3
20260902043032 30 124 6.4 16.1 0.00 0.00 0.00 65 1016.1
20260902041558 30 113 9.7 19.3 0.00 0.00 0.00 63 1014.3
20260902041532 30 113 8.0 19.3 0.00 0.00 0.00 64 1016.1
20260902040110 30 145 9.7 17.7 0.00 0.00 0.00 62 1014.2
20260902040032 30 145 9.7 17.7 0.00 0.00 0.00 63 1016.0
20260902034601 31 132 9.7 17.7 0.00 0.00 0.00 61 1014.1
20260902034533 31 113 11.3 17.7 0.00 0.00 0.00 61 1016.0
20260902033107 31 93 6.4 20.9 0.00 0.00 0.00 59 1014.0
20260902033030 31 93 6.4 20.9 0.00 0.00 0.00 60 1015.8
20260902031558 31 105 8.0 22.5 0.00 0.00 0.00 59 1013.6
20260902031530 31 105 6.4 20.9 0.00 0.00 0.00 59 1015.5
20260902030057 32 113 9.7 20.9 0.00 0.00 0.00 58 1013.6
20260902030029 32 114 9.7 20.9 0.00 0.00 0.00 58 1015.3
20260902024601 31 150 8.0 20.9 0.00 0.00 0.00 57 1013.4
20260902024529 31 101 6.4 20.9 0.00 0.00 0.00 57 1014.9
20260902023055 31 94 4.8 14.5 0.00 0.00 0.00 55 1013.2
20260902023030 31 114 4.8 14.5 0.00 0.00 0.00 56 1014.8
20260902021558 32 97 3.2 6.4 0.00 0.00 0.00 54 1012.7
20260902021543 32 97 3.2 6.4 0.00 0.00 0.00 55 1014.5
20260902020106 32 84 1.6 6.4 0.00 0.00 0.00 53 1012.5
20260902020027 32 84 1.6 4.8 0.00 0.00 0.00 54 1014.2
20260902014550 32 92 3.2 6.4 0.00 0.00 0.00 52 1012.2
20260902014536 32 90 3.2 6.4 0.00 0.00 0.00 52 1014.0
20260902013059 32 96 1.6 4.8 0.00 0.00 0.00 50 1012.1
20260902013026 32 96 1.6 3.2 0.00 0.00 0.00 51 1013.9
20260902011555 33 116 1.6 11.3 0.00 0.00 0.00 49 1012.2
20260902011528 33 116 1.6 11.3 0.00 0.00 0.00 49 1013.8
20260902010051 33 99 1.6 9.7 0.00 0.00 0.00 47 1011.9
20260902010025 33 99 1.6 6.4 0.00 0.00 0.00 48 1013.6
20260902004552 34 101 1.6 8.0 0.00 0.00 0.00 46 1011.9
20260902004528 34 101 1.6 8.0 0.00 0.00 0.00 47 1013.6
20260902003055 34 133 1.6 8.0 0.00 0.00 0.00 45 1012.0
20260902003029 34 155 1.6 8.0 0.00 0.00 0.00 46 1013.6
20260902001556 35 123 1.6 9.7 0.00 0.00 0.00 44 1011.9
20260902001523 35 136 3.2 8.0 0.00 0.00 0.00 45 1013.6
20260902000022 35 96 0.0 4.8 0.00 0.00 0.00 44 1013.5
20260901234550 35 141 0.0 9.7 0.00 0.00 0.00 44 1011.9
20260901234521 35 124 1.6 11.3 0.00 0.00 0.00 44 1013.6
20260901233050 35 0 1.6 12.9 0.00 0.00 0.00 43 1012.0
20260901233019 35 159 1.6 12.9 0.00 0.00 0.00 43 1013.7
20260901231557 35 0 0.0 12.9 0.00 0.00 0.00 43 1012.2
20260901231521 35 200 0.0 6.4 0.00 0.00 0.00 43 1013.7